TimeEDT,TemperatureF,Dew PointF,Humidity,Sea Level PressureIn,VisibilityMPH,Wind Direction,Wind SpeedMPH,Gust SpeedMPH,PrecipitationIn,Events,Conditions,WindDirDegrees,DateUTC
12:54 AM,82.0,71.1,69,30.09,10.0,SW,6.9,-,N/A,,Clear,230,2013-07-07 04:54:00
1:54 AM,80.1,71.1,74,30.09,10.0,SW,4.6,-,N/A,,Clear,230,2013-07-07 05:54:00
2:54 AM,78.1,71.1,79,30.07,10.0,SW,5.8,-,N/A,,Clear,230,2013-07-07 06:54:00
3:54 AM,75.9,71.1,85,30.07,10.0,Calm,Calm,-,N/A,,Clear,0,2013-07-07 07:54:00
4:54 AM,75.0,71.1,87,30.06,10.0,Calm,Calm,-,N/A,,Clear,0,2013-07-07 08:54:00
5:54 AM,73.9,70.0,87,30.06,10.0,Calm,Calm,-,N/A,,Clear,0,2013-07-07 09:54:00
6:54 AM,75.0,71.1,87,30.07,10.0,Calm,Calm,-,N/A,,Clear,0,2013-07-07 10:54:00
7:54 AM,80.1,72.0,76,30.07,10.0,Variable,5.8,-,N/A,,Clear,0,2013-07-07 11:54:00
8:54 AM,82.0,71.1,69,30.07,10.0,WSW,5.8,-,N/A,,Clear,240,2013-07-07 12:54:00
9:54 AM,82.9,72.0,69,30.06,10.0,West,6.9,-,N/A,,Clear,260,2013-07-07 13:54:00
10:54 AM,84.9,71.1,63,30.05,10.0,WSW,5.8,-,N/A,,Clear,250,2013-07-07 14:54:00
11:54 AM,88.0,72.0,59,30.04,10.0,Variable,3.5,-,N/A,,Clear,0,2013-07-07 15:54:00
12:54 PM,89.1,72.0,57,30.03,10.0,SSW,5.8,-,N/A,,Partly Cloudy,210,2013-07-07 16:54:00
1:54 PM,91.0,72.0,53,30.02,10.0,WSW,8.1,-,N/A,,Partly Cloudy,250,2013-07-07 17:54:00
2:54 PM,91.9,69.1,47,30.00,10.0,WSW,10.4,18.4,N/A,,Partly Cloudy,240,2013-07-07 18:54:00
3:54 PM,91.0,71.1,52,29.97,10.0,SW,8.1,-,N/A,,Scattered Clouds,220,2013-07-07 19:54:00
4:54 PM,91.9,71.1,50,29.97,10.0,West,11.5,-,N/A,,Clear,260,2013-07-07 20:54:00
5:54 PM,90.0,70.0,52,29.96,10.0,SW,10.4,18.4,N/A,,Partly Cloudy,230,2013-07-07 21:54:00
6:54 PM,89.1,70.0,53,29.97,10.0,WSW,9.2,-,N/A,,Clear,240,2013-07-07 22:54:00
7:54 PM,87.1,71.1,59,29.99,10.0,SW,6.9,-,N/A,,Clear,230,2013-07-07 23:54:00
8:54 PM,80.1,66.9,64,30.02,10.0,West,11.5,19.6,N/A,,Scattered Clouds,260,2013-07-08 00:54:00
9:54 PM,75.9,68.0,76,29.99,10.0,Calm,Calm,-,N/A,,Clear,0,2013-07-08 01:54:00
10:54 PM,77.0,69.1,76,30.02,10.0,WSW,6.9,-,N/A,,Clear,250,2013-07-08 02:54:00
11:54 PM,75.9,68.0,76,30.03,10.0,WSW,8.1,-,N/A,,Clear,250,2013-07-08 03:54:00